Tracking 20093 objects as of 16-Dec-2019
HD Live streaming from Space Station
objects crossing your sky now

COSMOS 2251 DEB

Track COSMOS 2251 DEB now!
10-day predictions


NORAD ID: 39589
Int'l Code: 1993-036BUU
Perigee: 564.6 km
Apogee: 603.3 km
Inclination: 74.0 °
Period: 96.2 minutes
Semi major axis: 6954 km
RCS: 0.0086 m2 (small)
Launch date: June 16, 1993
Source: Commonwealth of Independent States (former USSR) (CIS)
Launch site: PLESETSK MISSILE AND SPACE COMPLEX (PKMTR)

Note: This is SATELLITE DEBRIS
aabbcc
Your satellite tracking list
Your tracking list is empty




NASA's NSSDC Master Catalog

Two Line Element Set (TLE):
1 39589U 93036BUU 19348.48056806  .00003548  00000-0  31100-3 0  9995
2 39589  74.0054 264.6909 0027833 209.0455 269.5370 14.96787621533712
Source of the keplerian elements: AFSPC